Weather Roundup
Issued by NWS Chicago, IL

Home | Current Version | Previous Version | Text Only | Print | Product List | Glossary On
Versions: 1 2 3 4 5 6 7 8 9 10 11 12 13 14 15 16 17 18 19 20 21 22 23 24 25 26 27 28 29 30 31 32 33 34 35 36 37 38 39 40 41 42 43 44 45 46 47 48 49 50
000
NZUS59 KLOT 251508
HRRLOT

CHICAGO AREA WEATHER ROUNDUP
NATIONAL WEATHER SERVICE CHICAGO/ROMEOVILLE IL
1000 AM CDT WED MAY 25 2016

NOTE: "FAIR" INDICATES FEW OR NO CLOUDS BELOW 12,000 FEET WITH NO
SIGNIFICANT WEATHER AND/OR OBSTRUCTIONS TO VISIBILITY.

* THESE STATIONS ARE NOT UNDER NWS QUALITY CONTROL. THEY ALSO MAY NOT
  REPORT WEATHER SUCH AS PRECIPITATION OR FOG.

ILZ005-006-012>014-019>023-251600-
NORTHEAST ILLINOIS

CITY           SKY/WX    TMP DP  RH WIND       PRES   REMARKS
OHARE          CLOUDY    77  65  66 S12       30.00F
MIDWAY         MOSUNNY   77  62  59 S10       30.01F
AURORA         MOSUNNY   77  65  66 S12       30.00F
LANSING*       SUNNY     77  62  61 S10       30.02F
JOLIET*        SUNNY     76  66  72 S8        30.00F
WAUKEGAN       SUNNY     80  65  59 SW5       29.99F HX  82
DUPAGE AIRPORT MOSUNNY   75  63  66 S8        30.00F
WHEELING       CLOUDY    78  65  63 S10       30.01F HX  80
KANKAKEE*      SUNNY    N/A N/A N/A S6        30.02F
MORRIS*        SUNNY     76  63  64 S6        29.99F
LEWIS AIRPORT* SUNNY     74  62  66 S9        30.01F
$$

WIZ051-052-058>065-066-070>072-251600-
SOUTHEAST WISCONSIN

CITY           SKY/WX    TMP DP  RH WIND       PRES   REMARKS
MILWAUKEE      CLOUDY    59  52  77 N12       30.02R
KENOSHA*       CLOUDY    79  65  62 S5        30.00F HX  81
RACINE*        CLOUDY    75  62  64 E7        30.02S
BURLINGTON     CLOUDY    77  61  58 CALM      29.99F
WAUKESHA       SUNNY     73  64  73 NE7       30.02R
WEST BEND      CLOUDY    68  59  73 E7        30.02S
$$

INZ001>003-010>013-019-020-251600-
NORTHWEST INDIANA

CITY           SKY/WX    TMP DP  RH WIND       PRES   REMARKS
GARY*          MOSUNNY   77  70  78 S12       30.03
MICHIGAN CITY* NOT AVBL
RENSSELAER*    NOT AVBL
VALPARAISO     MOSUNNY   77  63  61 S9        30.04F
$$

LMZ740>746-251600-
SOUTHERN LAKE MICHIGAN

STATION/POSITION TIME  SKY/WX   TEMP WIND        PRES    VSBY
                                AIR  DIR/SP/G
                 (UTC)          (F)  (DEG/KT/KT) (MB)    (MI)
HARRISON CRIB    1400            71  170/ 12/ 12   N/A
BURNHAM HARBOR   1500            76  160/  8/ 13   N/A
CALUMET HARBOR   1400                180/  9/ 12   N/A
BURNS HARBOR     1400            74  200/ 10/ 15 1017.3F
MICHIGAN CITY    1400            73  170/  8/  9   N/A
$$

ABBREVIATIONS USED IN REMARKS
   TC - TEMPERATURE IN CELSIUS
  WCI - WIND CHILL INDEX
   HX - HEAT INDEX
  VSB - VISIBILITY
$$



USA.gov is the U.S. government's official web portal to all federal, state and local government web resources and services.